This is the latest recevied weather packets stored in our database for station/object I0UVN-10. If no packets are shown the sender has not sent any weather packets the latest 10 day(s).
| Time | Temp. | Humidity | Pressure | Rain* | Wind** | Luminosity | Snow |
|---|---|---|---|---|---|---|---|
| 1788090006 | 31.11° C | 48% | 1017.3 hPa | - | - | - | - |
| 1788088806 | 31.11° C | 47% | 1017.3 hPa | - | - | - | - |
| 1788087638 | 31.11° C | 47% | 1017.1 hPa | - | - | - | - |
| 1788087606 | 31.11° C | 47% | 1017.1 hPa | - | - | - | - |
| 1788086439 | 31.11° C | 46% | 1017.3 hPa | - | - | - | - |
| 1788086406 | 31.11° C | 46% | 1017.3 hPa | - | - | - | - |
| 1788085205 | 30.56° C | 46% | 1017.6 hPa | - | - | - | - |
| 1788084046 | 30.56° C | 47% | 1017.6 hPa | - | - | - | - |
| 1788082846 | 30.56° C | 47% | 1017.8 hPa | - | - | - | - |
| 1788081646 | 30.56° C | 47% | 1018 hPa | - | - | - | - |
| 1788080446 | 30.56° C | 44% | 1018.1 hPa | - | - | - | - |
| 1788079246 | 30.56° C | 49% | 1018 hPa | - | - | - | - |
| 1788078045 | 30.56° C | 49% | 1018.2 hPa | - | - | - | - |
| 1788076844 | 30° C | 49% | 1018 hPa | - | - | - | - |
| 1788075644 | 29.44° C | 53% | 1018.1 hPa | - | - | - | - |
| 1788074444 | 29.44° C | 54% | 1018 hPa | - | - | - | - |
| 1788073244 | 29.44° C | 55% | 1017.8 hPa | - | - | - | - |
| 1788072044 | 29.44° C | 50% | 1017.7 hPa | - | - | - | - |
| 1788070844 | 28.89° C | 49% | 1017.7 hPa | - | - | - | - |
| 1788069644 | 28.89° C | 49% | 1017.7 hPa | - | - | - | - |
| 1788068443 | 28.33° C | 51% | 1017.7 hPa | - | - | - | - |
| 1788067243 | 28.33° C | 51% | 1017.7 hPa | - | - | - | - |
| 1788066043 | 28.33° C | 51% | 1017.6 hPa | - | - | - | - |
| 1788064843 | 28.33° C | 52% | 1017.6 hPa | - | - | - | - |
| 1788063643 | 28.33° C | 52% | 1017.7 hPa | - | - | - | - |
* Rain since midnight (hover to see other rain measurements)
** Current wind speed in m/s (hover to see current wind gust speed)